Weather History for San Diego, CA

Change the Weather History Date:

Thursday, February 13, 2014

  Actual Average Record
Temperature  
Mean Temperature 65 °F 58 °F  
Max Temperature 76 °F 65 °F 87 °F (1943)
Min Temperature 53 °F 51 °F 35 °F (1894)
Degree Days  
Heating Degree Days 0 7  
Month to date heating degree days 66 97  
Since 1 July heating degree days 421 752  
Cooling Degree Days 0 0  
Month to date cooling degree days 0 0  
Year to date cooling degree days 7 2  
Growing Degree Days 14 (Base 50)    
Moisture  
Dew Point 46 °F    
Average Humidity 48    
Maximum Humidity 62    
Minimum Humidity 33    
Precipitation  
Precipitation 0.00 in 0.09 in 1.01 in (1878)
Month to date precipitation 0.35 0.98  
Year to date precipitation 0.36 2.96  
Since 1 July precipitation 2.60 6.27  
Snow  
Snow 0.00 in - - ()
Month to date snowfall 0.0  
Year to date snowfall 0.0  
Since 1 July snowfall 0.0  
Snow Depth 0.00 in    
Sea Level Pressure  
Sea Level Pressure 30.04 in    
Wind  
Wind Speed 2 mph (NW)    
Max Wind Speed 9 mph    
Max Gust Speed 12 mph    
Visibility 10 miles    
Events      
T = Trace of Precipitation, MM = Missing Value Source: NWS Daily Summary

Daily Weather History Graph

Daily Weather History Graph

Search for Another Location

Airport:

Trip Planner

Search our weather history database for the weather conditions in past years. The results will help you decide how hot, cold, wet, or windy it might be!

Date:

Astronomy

Feb. 13, 2014 Rise Set
Actual Time 6:33 AM PST 5:32 PM PST
Civil Twilight 6:08 AM PST 5:57 PM PST
Nautical Twilight 5:39 AM PST 6:26 PM PST
Astronomical Twilight 5:10 AM PST 6:55 PM PST
Moon 4:44 PM PST (2/13) 5:28 AM PST (2/13)
Length of Visible Light 11h 49m
Length of Day
10h 59m
Waxing Gibbous, 99% of the Moon is Illuminated
Feb 13
Waxing Gibbous
Feb 14
Full
Feb 22
Last Quarter
Mar 1
New
Mar 8
First Quarter

Hourly Weather History & Observations

Time (PST) Temp. Dew Point Humidity Pressure Visibility Wind Dir Wind Speed Gust Speed Precip Events Conditions
12:51 AM 59.0 °F 44.1 °F 58% 30.08 in 10.0 mi Calm Calm - N/A   Partly Cloudy
1:51 AM 57.0 °F 45.0 °F 64% 30.07 in 9.0 mi Calm Calm - N/A   Partly Cloudy
2:51 AM 57.0 °F 42.1 °F 57% 30.06 in 10.0 mi Calm Calm - N/A   Partly Cloudy
3:51 AM 55.0 °F 43.0 °F 64% 30.04 in 10.0 mi Calm Calm - N/A   Clear
4:51 AM 55.9 °F 41.0 °F 57% 30.04 in 10.0 mi Calm Calm - N/A   Clear
5:51 AM 55.0 °F 41.0 °F 59% 30.06 in 10.0 mi Calm Calm - N/A   Clear
6:51 AM 55.9 °F 39.9 °F 55% 30.07 in 10.0 mi Calm Calm - N/A   Partly Cloudy
7:51 AM 60.1 °F 41.0 °F 49% 30.08 in 10.0 mi Calm Calm - N/A   Scattered Clouds
8:51 AM 64.9 °F 39.9 °F 40% 30.09 in 10.0 mi Calm Calm - N/A   Scattered Clouds
9:51 AM 69.1 °F 42.1 °F 38% 30.09 in 10.0 mi Calm Calm - N/A   Scattered Clouds
10:51 AM 73.9 °F 42.1 °F 32% 30.07 in 10.0 mi SSW 3.5 mph - N/A   Mostly Cloudy
11:51 AM 73.0 °F 48.0 °F 41% 30.05 in 10.0 mi NW 6.9 mph - N/A   Mostly Cloudy
12:51 PM 73.9 °F 48.0 °F 40% 30.02 in 10.0 mi NNW 9.2 mph - N/A   Mostly Cloudy
1:51 PM 73.9 °F 46.0 °F 37% 30.01 in 10.0 mi NW 5.8 mph - N/A   Mostly Cloudy
2:51 PM 73.0 °F 48.0 °F 41% 30.00 in 10.0 mi NW 5.8 mph - N/A   Scattered Clouds
3:51 PM 71.1 °F 48.9 °F 45% 29.99 in 10.0 mi NNW 5.8 mph - N/A   Mostly Cloudy
4:51 PM 68.0 °F 51.1 °F 55% 29.99 in 10.0 mi NW 6.9 mph - N/A   Mostly Cloudy
5:51 PM 66.0 °F 53.1 °F 63% 30.00 in 10.0 mi NW 4.6 mph - N/A   Scattered Clouds
6:51 PM 66.0 °F 50.0 °F 56% 30.01 in 10.0 mi North 4.6 mph - N/A   Scattered Clouds
7:51 PM 66.0 °F 46.9 °F 50% 30.02 in 10.0 mi Calm Calm - N/A   Scattered Clouds
8:51 PM 64.0 °F 48.9 °F 58% 30.03 in 10.0 mi Calm Calm - N/A   Partly Cloudy
9:51 PM 64.0 °F 54.0 °F 70% 30.03 in 9.0 mi Calm Calm - N/A   Partly Cloudy
10:51 PM 62.1 °F 48.9 °F 62% 30.03 in 9.0 mi Calm Calm - N/A   Clear
11:51 PM 60.1 °F 48.9 °F 67% 30.04 in 9.0 mi North 3.5 mph - N/A   Clear